Regional Weather Roundup
Issued by NWS Lake Charles, LA

Home | Current Version | Previous Version | Text Only | Print | Product List | Glossary On
Versions: 1 2 3 4 5 6 7 8 9 10 11 12 13 14 15 16 17 18 19 20 21 22 23 24 25 26 27 28 29 30 31 32 33 34 35 36 37 38 39 40 41 42 43 44 45 46 47 48 49 50
000
ASUS44 KLCH 301210
RWRLCH
REGIONAL WEATHER ROUNDUP
NATIONAL WEATHER SERVICE LAKE CHARLES LA
700 AM CDT SAT JUL 30 2016

Note: "fair" indicates few or no clouds below 12,000 feet with no
significant weather and/or obstructions to visibility.


ACROSS SOUTHEAST TEXAS

CITY           SKY/WX    TMP DP  RH WIND       PRES   REMARKS
BEAUMONT       PTCLDY    75  74  96 CALM      30.01R FOG
BEAUMONT CITY  FAIR      76  74  92 CALM      30.02S FOG
ORANGE         FOG       74  72  93 CALM      30.03S VSB 3/4
JASPER         CLEAR     73  72  96 CALM      30.05R FOG
$$

ACROSS CENTRAL LOUISIANA

CITY           SKY/WX    TMP DP  RH WIND       PRES   REMARKS
LEESVILLE      CLOUDY    77  75  93 SW7       30.02R
FULLERTON      FAIR      77  75  93 CALM      30.00R
ALEXANDRIA INT CLOUDY    76  75  97 CALM      30.01R
ESLER FIELD    CLOUDY    75  75 100 CALM      30.02R
DERIDDER       FAIR      75  74  95 CALM      30.04R
OAKDALE        SUNNY     72  71  97 CALM      30.02R
OPELOUSAS      FAIR      73  73  98 CALM      30.02R
$$

ACROSS SOUTHWEST AND SOUTH CENTRAL LOUISIANA

CITY           SKY/WX    TMP DP  RH WIND       PRES   REMARKS
SULPHUR        SUNNY     78  76  96 CALM      30.02S
LAKE CHARLES   CLEAR     76  75  97 CALM      30.01S
CHENNAULT INT  CLEAR     77  75  94 CALM      30.02S
CAMERON PHI    NOT AVBL
DEQUINCY       FAIR      73  73 100 CALM      30.02S
JENNINGS       FAIR      75  75 100 CALM      30.02S
LAFAYETTE      CLEAR     78  77  96 S3        30.02S
NEW IBERIA     CLEAR     76  75  97 CALM      30.03R
ABBEVILLE      FAIR      75  75 100 CALM      30.03S
PATTERSON      CLEAR     77  76  96 CALM      30.03R
SALT POINT       N/A     85  75  72 VRB5      30.01R
$$

SELECTED SITES ACROSS THE REGION

CITY           SKY/WX    TMP DP  RH WIND       PRES   REMARKS
HOUSTON BUSH   PTCLDY    77  75  93 S3        30.01S
HOUSTON HOBBY  PTCLDY    77  75  93 CALM      30.00S
GALVESTON      PTCLDY    81  77  88 SW5       30.01S
COLLEGE STAT   CLEAR     76  75  97 S5        30.02R
CONROE         CLEAR     73  72  96 CALM      30.02R
HUNTSVILLE     CLEAR     76  74  93 S3        30.02S
LUFKIN         PTCLDY    76  75  97 SW3       30.02R
SHREVEPORT     PTCLDY    76  74  93 S3        30.01R
MONROE         CLEAR     76  74  93 S3        30.03R
NATCHEZ MS     CLEAR     73  72  94 S3        30.04R
BATON ROUGE    CLEAR     76  73  91 CALM      30.02S
N.O. INTL ARPT PTCLDY    81  76  84 NW3       30.03R
SLIDELL        CLEAR     74  72  93 CALM      30.03R
$$

MARINE REPORTS

STATION/POSITION TIME  SKY/WX   TEMP    WIND        PRES    VSBY
                                AIR SEA DIR/SP/G
                 (UTC)          (F)     (DEG/KT/KT) (MB)    (MI)
BUOY 30 S HIGH I 1150            85 87  230/  6/  8 1016.0R
WVE H/P(F/S)=  2/ 4

SEA RIM ST PARK  1200            80     330/  4/  5 1016.7R
PORT ARTHUR      1100               88  230/  5/  6 1016.2R
SABINE PASS N    1100            81 89  250/  1/  3 1017.5R
TEXAS POINT      NOT AVBL
CALCASIEU PASS   1100            85 86  250/  6/  8 1015.5R
LK CHARLES BEACH 1100            81 88              1016.8R
MARSH ISLAND     NOT AVBL
FRESH WATER LOCK 1100            83 89  200/  5/  7 1016.8R
AMERADA PASS     1100            82 87  180/  1/  3 1016.3R
$$



USA.gov is the U.S. government's official web portal to all federal, state and local government web resources and services.